"Period start","avg(HW err(1)/warn(2) (#))","avg(Visibility (m))","avg(Weather code (#))","avg(Precip intensity (mm/h))","min(HW err(1)/warn(2) (#))","max(HW err(1)/warn(2) (#))","std(HW err(1)/warn(2) (#))","med(HW err(1)/warn(2) (#))","min(Visibility (m))","max(Visibility (m))","std(Visibility (m))","med(Visibility (m))","min(Weather code (#))","max(Weather code (#))","std(Weather code (#))","med(Weather code (#))","min(Precip intensity (mm/h))","max(Precip intensity (mm/h))","std(Precip intensity (mm/h))","med(Precip intensity (mm/h))"
2017-10-06 00:00:00,2,41736,0,0.00,2,2,0,2,13557,50000,12171,49652,0,0,0,0,0.00,0.00,0.00,0.00
2017-10-06 00:10:00,2,47982,0,0.00,2,2,0,2,41848,50000,2871,49500,0,0,0,0,0.00,0.00,0.00,0.00
2017-10-06 00:20:00,2,38645,0,0.00,2,2,0,2,20219,50000,9334,39394,0,0,0,0,0.00,0.00,0.00,0.00
2017-10-06 00:30:00,2,41407,15,0.01,2,2,0,2,13332,50000,13580,50000,0,71,24,0,0.00,0.10,0.03,0.00
2017-10-06 00:40:00,2,33042,28,0.05,2,2,0,2,11095,50000,15914,33970,0,71,35,0,0.00,0.40,0.12,0.00
2017-10-06 00:50:00,2,46447,21,0.01,2,2,0,2,29011,50000,6396,50000,0,71,33,0,0.00,0.15,0.05,0.00
2017-10-06 01:00:00,2,44039,44,0.01,2,2,0,2,26679,50000,7744,47321,0,77,36,71,0.00,0.10,0.03,0.00
2017-10-06 01:10:00,2,30159,50,0.07,2,2,0,2,10149,50000,15219,31624,0,71,33,71,0.00,0.55,0.17,0.00
2017-10-06 01:20:00,2,40917,44,0.01,2,2,0,2,26557,50000,7567,39926,0,77,36,71,0.00,0.05,0.02,0.00
2017-10-06 01:30:00,2,38117,37,0.01,2,2,0,2,15171,50000,11079,41812,0,77,37,36,0.00,0.10,0.03,0.00
2017-10-06 01:40:00,2,39133,57,0.04,2,2,0,2,14922,50000,10246,42376,0,71,28,71,0.00,0.35,0.11,0.00
2017-10-06 01:50:00,2,48603,15,0.00,2,2,0,2,40514,50000,2826,50000,0,77,30,0,0.00,0.00,0.00,0.00
2017-10-06 02:00:00,2,45417,58,0.01,2,2,0,2,26166,50000,7211,49742,0,77,29,71,0.00,0.05,0.02,0.00
2017-10-06 02:10:00,2,40037,73,0.01,2,2,0,2,18214,50000,9365,40746,71,77,3,71,0.00,0.05,0.02,0.00
2017-10-06 02:20:00,2,46445,7,0.00,2,2,0,2,33928,50000,5392,50000,0,71,21,0,0.00,0.00,0.00,0.00
2017-10-06 02:30:00,2,29676,43,0.01,2,2,0,2,9320,46768,11130,30773,0,71,35,71,0.00,0.10,0.03,0.00
2017-10-06 02:40:00,2,46112,43,0.01,2,2,0,2,34200,50000,5445,50000,0,71,35,71,0.00,0.05,0.02,0.00
2017-10-06 02:50:00,2,49423,0,0.00,2,2,0,2,47910,50000,768,49896,0,0,0,0,0.00,0.00,0.00,0.00
2017-10-06 03:00:00,2,47810,0,0.00,2,2,0,2,41989,50000,2256,48543,0,0,0,0,0.00,0.00,0.00,0.00
2017-10-06 03:10:00,2,25793,57,0.03,2,2,0,2,6246,50000,16111,16285,0,71,28,71,0.00,0.15,0.05,0.00
2017-10-06 03:20:00,2,41260,28,0.00,2,2,0,2,21051,50000,9093,44687,0,71,35,0,0.00,0.00,0.00,0.00
2017-10-06 03:30:00,2,43934,0,0.00,2,2,0,2,19948,50000,9739,49248,0,0,0,0,0.00,0.00,0.00,0.00
2017-10-06 03:40:00,2,48545,0,0.00,2,2,0,2,43658,50000,2284,50000,0,0,0,0,0.00,0.00,0.00,0.00
2017-10-06 03:50:00,2,32807,28,0.01,2,2,0,2,15919,50000,13213,31205,0,71,35,0,0.00,0.15,0.05,0.00
2017-10-06 04:00:00,2,35635,19,0.00,2,2,0,2,6709,50000,16972,46604,0,71,25,0,0.00,0.00,0.00,0.00
2017-10-06 04:10:00,2,45747,36,0.00,2,2,0,2,15743,50000,10301,50000,0,71,36,36,0.00,0.00,0.00,0.00
2017-10-06 04:20:00,2,44582,28,0.00,2,2,0,2,18205,50000,10105,50000,0,71,35,0,0.00,0.00,0.00,0.00
2017-10-06 04:30:00,2,24400,71,0.03,2,2,0,2,6822,39948,9365,26305,71,71,0,71,0.00,0.15,0.05,0.00
2017-10-06 04:40:00,2,47774,43,0.01,2,2,0,2,35490,50000,4371,50000,0,71,35,71,0.00,0.05,0.02,0.00
2017-10-06 04:50:00,2,48574,0,0.00,2,2,0,2,42970,50000,2236,50000,0,0,0,0,0.00,0.00,0.00,0.00
2017-10-06 05:00:00,2,48778,0,0.00,2,2,0,2,45012,50000,1890,50000,0,0,0,0,0.00,0.00,0.00,0.00
2017-10-06 05:10:00,2,35987,8,0.01,2,2,0,2,10626,50000,11407,39724,0,40,16,0,0.00,0.05,0.02,0.00
2017-10-06 05:20:00,2,49380,43,0.00,2,2,0,2,45283,50000,1414,50000,0,71,35,71,0.00,0.00,0.00,0.00
2017-10-06 05:30:00,2,35432,36,0.01,2,2,0,2,12223,50000,13677,38046,0,71,36,36,0.00,0.05,0.02,0.00
2017-10-06 05:40:00,2,43220,0,0.00,2,2,0,2,21530,50000,9418,47260,0,0,0,0,0.00,0.00,0.00,0.00
2017-10-06 05:50:00,2,41825,66,0.02,2,2,0,2,26563,50000,7479,42810,0,77,22,71,0.00,0.10,0.03,0.00
2017-10-06 06:00:00,2,34883,74,0.07,2,2,0,2,19683,42809,7633,37179,71,77,3,74,0.00,0.50,0.15,0.00
2017-10-06 06:10:00,2,39706,50,0.04,2,2,0,2,14585,50000,11584,44118,0,71,33,71,0.00,0.35,0.11,0.00
2017-10-06 06:20:00,2,37445,36,0.03,2,2,0,2,16898,48919,9788,38548,0,71,36,36,0.00,0.15,0.05,0.00
2017-10-06 06:30:00,2,43361,64,0.01,2,2,0,2,37256,50000,4554,43467,0,71,21,71,0.00,0.05,0.02,0.00
2017-10-06 06:40:00,2,43213,30,0.00,2,2,0,2,20081,50000,9205,47263,0,71,27,40,0.00,0.00,0.00,0.00
2017-10-06 06:50:00,2,45927,7,0.00,2,2,0,2,31721,50000,6026,49388,0,71,21,0,0.00,0.00,0.00,0.00
2017-10-06 07:00:00,2,50000,0,0.00,2,2,0,2,50000,50000,0,50000,0,0,0,0,0.00,0.00,0.00,0.00
2017-10-06 07:10:00,2,49264,0,0.00,2,2,0,2,43656,50000,1894,50000,0,0,0,0,0.00,0.00,0.00,0.00
2017-10-06 07:20:00,2,48245,0,0.00,2,2,0,2,41585,50000,3083,50000,0,0,0,0,0.00,0.00,0.00,0.00
2017-10-06 07:30:00,2,45335,0,0.00,2,2,0,2,28177,50000,7926,50000,0,0,0,0,0.00,0.00,0.00,0.00
2017-10-06 07:40:00,2,38572,28,0.00,2,2,0,2,16684,50000,11950,44032,0,71,35,0,0.00,0.00,0.00,0.00
2017-10-06 07:50:00,2,37828,65,0.02,2,2,0,2,9041,50000,12161,42222,41,71,12,71,0.00,0.05,0.02,0.00
2017-10-06 08:00:00,2,32024,68,0.08,2,2,0,2,10645,50000,12179,35768,41,71,9,71,0.00,0.60,0.18,0.00
2017-10-06 08:10:00,2,30862,71,0.14,2,2,0,2,9350,50000,12195,30278,71,71,0,71,0.00,0.35,0.12,0.12
2017-10-06 08:20:00,2,46683,43,0.00,2,2,0,2,32865,50000,5732,50000,0,77,35,71,0.00,0.00,0.00,0.00
2017-10-06 08:30:00,2,49240,0,0.00,2,2,0,2,46108,50000,1520,50000,0,0,0,0,0.00,0.00,0.00,0.00
2017-10-06 08:40:00,2,50000,0,0.00,2,2,0,2,50000,50000,0,50000,0,0,0,0,0.00,0.00,0.00,0.00
2017-10-06 08:50:00,2,50000,0,0.00,2,2,0,2,50000,50000,0,50000,0,0,0,0,0.00,0.00,0.00,0.00
2017-10-06 09:00:00,2,49392,0,0.00,2,2,0,2,43919,50000,1824,50000,0,0,0,0,0.00,0.00,0.00,0.00
2017-10-06 09:10:00,2,50000,0,0.00,2,2,0,2,50000,50000,0,50000,0,0,0,0,0.00,0.00,0.00,0.00
2017-10-06 09:20:00,2,43462,0,0.00,2,2,0,2,23375,50000,8247,46259,0,0,0,0,0.00,0.00,0.00,0.00
2017-10-06 09:30:00,2,42844,0,0.00,2,2,0,2,11604,50000,12514,49903,0,0,0,0,0.00,0.00,0.00,0.00
2017-10-06 09:40:00,2,47468,0,0.00,2,2,0,2,41167,50000,3452,50000,0,0,0,0,0.00,0.00,0.00,0.00
2017-10-06 09:50:00,2,50000,0,0.00,2,2,0,2,50000,50000,0,50000,0,0,0,0,0.00,0.00,0.00,0.00
2017-10-06 10:00:00,2,50000,0,0.00,2,2,0,2,50000,50000,0,50000,0,0,0,0,0.00,0.00,0.00,0.00
2017-10-06 10:10:00,2,50000,0,0.00,2,2,0,2,50000,50000,0,50000,0,0,0,0,0.00,0.00,0.00,0.00
2017-10-06 10:20:00,2,50000,0,0.00,2,2,0,2,50000,50000,0,50000,0,0,0,0,0.00,0.00,0.00,0.00
2017-10-06 10:30:00,2,48801,0,0.00,2,2,0,2,39091,50000,3253,50000,0,0,0,0,0.00,0.00,0.00,0.00
2017-10-06 10:40:00,2,50000,0,0.00,2,2,0,2,50000,50000,0,50000,0,0,0,0,0.00,0.00,0.00,0.00
2017-10-06 10:50:00,2,49802,0,0.00,2,2,0,2,48015,50000,596,50000,0,0,0,0,0.00,0.00,0.00,0.00
2017-10-06 11:00:00,2,50000,0,0.00,2,2,0,2,50000,50000,0,50000,0,0,0,0,0.00,0.00,0.00,0.00
2017-10-06 11:10:00,2,46912,0,0.00,2,2,0,2,35839,50000,5144,50000,0,0,0,0,0.00,0.00,0.00,0.00
2017-10-06 11:20:00,2,50000,0,0.00,2,2,0,2,50000,50000,0,50000,0,0,0,0,0.00,0.00,0.00,0.00
2017-10-06 11:30:00,2,49355,0,0.00,2,2,0,2,43550,50000,1935,50000,0,0,0,0,0.00,0.00,0.00,0.00
2017-10-06 11:40:00,2,50000,0,0.00,2,2,0,2,50000,50000,0,50000,0,0,0,0,0.00,0.00,0.00,0.00
2017-10-06 11:50:00,2,50000,0,0.00,2,2,0,2,50000,50000,0,50000,0,0,0,0,0.00,0.00,0.00,0.00
2017-10-06 12:00:00,2,50000,0,0.00,2,2,0,2,50000,50000,0,50000,0,0,0,0,0.00,0.00,0.00,0.00
2017-10-06 12:10:00,2,50000,0,0.00,2,2,0,2,50000,50000,0,50000,0,0,0,0,0.00,0.00,0.00,0.00
2017-10-06 12:20:00,2,50000,0,0.00,2,2,0,2,50000,50000,0,50000,0,0,0,0,0.00,0.00,0.00,0.00
2017-10-06 12:30:00,2,50000,0,0.00,2,2,0,2,50000,50000,0,50000,0,0,0,0,0.00,0.00,0.00,0.00
2017-10-06 12:40:00,2,48890,0,0.00,2,2,0,2,39462,50000,3147,50000,0,0,0,0,0.00,0.00,0.00,0.00
2017-10-06 12:50:00,2,50000,0,0.00,2,2,0,2,50000,50000,0,50000,0,0,0,0,0.00,0.00,0.00,0.00
2017-10-06 13:00:00,2,50000,0,0.00,2,2,0,2,50000,50000,0,50000,0,0,0,0,0.00,0.00,0.00,0.00
2017-10-06 13:10:00,2,50000,0,0.00,2,2,0,2,50000,50000,0,50000,0,0,0,0,0.00,0.00,0.00,0.00
2017-10-06 13:20:00,2,50000,0,0.00,2,2,0,2,50000,50000,0,50000,0,0,0,0,0.00,0.00,0.00,0.00
2017-10-06 13:30:00,2,50000,0,0.00,2,2,0,2,50000,50000,0,50000,0,0,0,0,0.00,0.00,0.00,0.00
2017-10-06 13:40:00,2,50000,0,0.00,2,2,0,2,50000,50000,0,50000,0,0,0,0,0.00,0.00,0.00,0.00
2017-10-06 13:50:00,2,50000,0,0.00,2,2,0,2,50000,50000,0,50000,0,0,0,0,0.00,0.00,0.00,0.00
2017-10-06 14:00:00,2,50000,0,0.00,2,2,0,2,50000,50000,0,50000,0,0,0,0,0.00,0.00,0.00,0.00
2017-10-06 14:10:00,2,50000,0,0.00,2,2,0,2,50000,50000,0,50000,0,0,0,0,0.00,0.00,0.00,0.00
2017-10-06 14:20:00,2,49435,0,0.00,2,2,0,2,45832,50000,1280,50000,0,0,0,0,0.00,0.00,0.00,0.00
2017-10-06 14:30:00,2,50000,0,0.00,2,2,0,2,50000,50000,0,50000,0,0,0,0,0.00,0.00,0.00,0.00
2017-10-06 14:40:00,2,50000,0,0.00,2,2,0,2,50000,50000,0,50000,0,0,0,0,0.00,0.00,0.00,0.00
2017-10-06 14:50:00,2,50000,0,0.00,2,2,0,2,50000,50000,0,50000,0,0,0,0,0.00,0.00,0.00,0.00
2017-10-06 15:00:00,2,50000,0,0.00,2,2,0,2,50000,50000,0,50000,0,0,0,0,0.00,0.00,0.00,0.00
2017-10-06 15:10:00,2,50000,0,0.00,2,2,0,2,50000,50000,0,50000,0,0,0,0,0.00,0.00,0.00,0.00
2017-10-06 15:20:00,2,50000,0,0.00,2,2,0,2,50000,50000,0,50000,0,0,0,0,0.00,0.00,0.00,0.00
2017-10-06 15:30:00,2,50000,0,0.00,2,2,0,2,50000,50000,0,50000,0,0,0,0,0.00,0.00,0.00,0.00
2017-10-06 15:40:00,2,50000,0,0.00,2,2,0,2,50000,50000,0,50000,0,0,0,0,0.00,0.00,0.00,0.00
2017-10-06 15:50:00,2,50000,0,0.00,2,2,0,2,50000,50000,0,50000,0,0,0,0,0.00,0.00,0.00,0.00
2017-10-06 16:00:00,2,50000,0,0.00,2,2,0,2,50000,50000,0,50000,0,0,0,0,0.00,0.00,0.00,0.00
2017-10-06 16:10:00,2,50000,0,0.00,2,2,0,2,50000,50000,0,50000,0,0,0,0,0.00,0.00,0.00,0.00
2017-10-06 16:20:00,2,50000,0,0.00,2,2,0,2,50000,50000,0,50000,0,0,0,0,0.00,0.00,0.00,0.00
2017-10-06 16:30:00,2,50000,0,0.00,2,2,0,2,50000,50000,0,50000,0,0,0,0,0.00,0.00,0.00,0.00
2017-10-06 16:40:00,2,49978,0,0.00,2,2,0,2,49777,50000,67,50000,0,0,0,0,0.00,0.00,0.00,0.00
2017-10-06 16:50:00,2,50000,0,0.00,2,2,0,2,50000,50000,0,50000,0,0,0,0,0.00,0.00,0.00,0.00
2017-10-06 17:00:00,2,50000,0,0.00,2,2,0,2,50000,50000,0,50000,0,0,0,0,0.00,0.00,0.00,0.00
2017-10-06 17:10:00,2,50000,0,0.00,2,2,0,2,50000,50000,0,50000,0,0,0,0,0.00,0.00,0.00,0.00
2017-10-06 17:20:00,2,50000,0,0.00,2,2,0,2,50000,50000,0,50000,0,0,0,0,0.00,0.00,0.00,0.00
2017-10-06 17:30:00,2,50000,0,0.00,2,2,0,2,50000,50000,0,50000,0,0,0,0,0.00,0.00,0.00,0.00
2017-10-06 17:40:00,2,50000,0,0.00,2,2,0,2,50000,50000,0,50000,0,0,0,0,0.00,0.00,0.00,0.00
2017-10-06 17:50:00,2,50000,0,0.00,2,2,0,2,50000,50000,0,50000,0,0,0,0,0.00,0.00,0.00,0.00
2017-10-06 18:00:00,2,50000,0,0.00,2,2,0,2,50000,50000,0,50000,0,0,0,0,0.00,0.00,0.00,0.00
2017-10-06 18:10:00,2,50000,0,0.00,2,2,0,2,50000,50000,0,50000,0,0,0,0,0.00,0.00,0.00,0.00
2017-10-06 18:20:00,2,50000,0,0.00,2,2,0,2,50000,50000,0,50000,0,0,0,0,0.00,0.00,0.00,0.00
2017-10-06 18:30:00,2,50000,0,0.00,2,2,0,2,50000,50000,0,50000,0,0,0,0,0.00,0.00,0.00,0.00
2017-10-06 18:40:00,2,50000,0,0.00,2,2,0,2,50000,50000,0,50000,0,0,0,0,0.00,0.00,0.00,0.00
2017-10-06 18:50:00,2,50000,0,0.00,2,2,0,2,50000,50000,0,50000,0,0,0,0,0.00,0.00,0.00,0.00
2017-10-06 19:00:00,2,50000,0,0.00,2,2,0,2,50000,50000,0,50000,0,0,0,0,0.00,0.00,0.00,0.00
2017-10-06 19:10:00,2,50000,0,0.00,2,2,0,2,50000,50000,0,50000,0,0,0,0,0.00,0.00,0.00,0.00
2017-10-06 19:20:00,2,50000,0,0.00,2,2,0,2,50000,50000,0,50000,0,0,0,0,0.00,0.00,0.00,0.00
2017-10-06 19:30:00,2,50000,0,0.00,2,2,0,2,50000,50000,0,50000,0,0,0,0,0.00,0.00,0.00,0.00
2017-10-06 19:40:00,2,50000,0,0.00,2,2,0,2,50000,50000,0,50000,0,0,0,0,0.00,0.00,0.00,0.00
2017-10-06 19:50:00,2,49965,0,0.00,2,2,0,2,49651,50000,105,50000,0,0,0,0,0.00,0.00,0.00,0.00
2017-10-06 20:00:00,2,50000,0,0.00,2,2,0,2,50000,50000,0,50000,0,0,0,0,0.00,0.00,0.00,0.00
2017-10-06 20:10:00,2,50000,0,0.00,2,2,0,2,50000,50000,0,50000,0,0,0,0,0.00,0.00,0.00,0.00
2017-10-06 20:20:00,2,49937,0,0.00,2,2,0,2,49367,50000,190,50000,0,0,0,0,0.00,0.00,0.00,0.00
2017-10-06 20:30:00,2,50000,0,0.00,2,2,0,2,50000,50000,0,50000,0,0,0,0,0.00,0.00,0.00,0.00
2017-10-06 20:40:00,2,49945,0,0.00,2,2,0,2,49454,50000,164,50000,0,0,0,0,0.00,0.00,0.00,0.00
2017-10-06 20:50:00,2,50000,0,0.00,2,2,0,2,50000,50000,0,50000,0,0,0,0,0.00,0.00,0.00,0.00
2017-10-06 21:00:00,2,50000,0,0.00,2,2,0,2,50000,50000,0,50000,0,0,0,0,0.00,0.00,0.00,0.00
2017-10-06 21:10:00,2,50000,0,0.00,2,2,0,2,50000,50000,0,50000,0,0,0,0,0.00,0.00,0.00,0.00
2017-10-06 21:20:00,2,50000,0,0.00,2,2,0,2,50000,50000,0,50000,0,0,0,0,0.00,0.00,0.00,0.00
2017-10-06 21:30:00,2,50000,0,0.00,2,2,0,2,50000,50000,0,50000,0,0,0,0,0.00,0.00,0.00,0.00
2017-10-06 21:40:00,2,50000,0,0.00,2,2,0,2,50000,50000,0,50000,0,0,0,0,0.00,0.00,0.00,0.00
2017-10-06 21:50:00,2,50000,0,0.00,2,2,0,2,50000,50000,0,50000,0,0,0,0,0.00,0.00,0.00,0.00
2017-10-06 22:00:00,2,48419,0,0.00,2,2,0,2,44807,50000,1762,49158,0,0,0,0,0.00,0.00,0.00,0.00
2017-10-06 22:10:00,2,47058,0,0.00,2,2,0,2,41553,50000,2981,47866,0,0,0,0,0.00,0.00,0.00,0.00
2017-10-06 22:20:00,2,47830,0,0.00,2,2,0,2,45105,50000,1561,48136,0,0,0,0,0.00,0.00,0.00,0.00
2017-10-06 22:30:00,2,47888,0,0.00,2,2,0,2,44609,50000,1902,47689,0,0,0,0,0.00,0.00,0.00,0.00
2017-10-06 22:40:00,2,48412,0,0.00,2,2,0,2,44700,50000,1835,49164,0,0,0,0,0.00,0.00,0.00,0.00
2017-10-06 22:50:00,2,44269,0,0.00,2,2,0,2,39201,50000,3112,44571,0,0,0,0,0.00,0.00,0.00,0.00
2017-10-06 23:00:00,2,47030,0,0.00,2,2,0,2,40638,50000,2984,47968,0,0,0,0,0.00,0.00,0.00,0.00
2017-10-06 23:10:00,2,42905,0,0.00,2,2,0,2,26523,50000,8324,44980,0,0,0,0,0.00,0.00,0.00,0.00
2017-10-06 23:20:00,2,34063,0,0.00,2,2,0,2,20405,43129,8188,36494,0,0,0,0,0.00,0.00,0.00,0.00
2017-10-06 23:30:00,2,15840,0,0.00,2,2,0,2,4897,35880,8462,14018,0,0,0,0,0.00,0.00,0.00,0.00
2017-10-06 23:40:00,2,14884,0,0.00,2,2,0,2,11676,18597,2480,14694,0,0,0,0,0.00,0.00,0.00,0.00
2017-10-06 23:50:00,2,16670,0,0.00,2,2,0,2,11341,22511,3556,16578,0,0,0,0,0.00,0.00,0.00,0.00
